| time (UTC) | temp C | wind direction | speed KPH | gust KPH | rain 1hr cm | rain 24hr cm | rain mn cm | humidity % | barometer mb |
| 20260506211502 | 6 | 272 | 0.0 | 0.0 | 0.03 | 1.30 | 1.24 | 97 | 1009.6 |
| 20260506210003 | 6 | 304 | 0.0 | 3.2 | 0.03 | 1.30 | 1.24 | 97 | 1009.5 |
| 20260506204601 | 6 | 263 | 0.0 | 1.6 | 0.05 | 1.32 | 1.24 | 96 | 1009.8 |
| 20260506203100 | 6 | 260 | 0.0 | 0.0 | 0.08 | 1.32 | 1.24 | 96 | 1009.8 |
| 20260506201600 | 6 | 306 | 0.0 | 0.0 | 0.05 | 1.30 | 1.22 | 96 | 1009.6 |
| 20260506200107 | 6 | 288 | 0.0 | 0.0 | 0.05 | 1.30 | 1.22 | 96 | 1009.6 |
| 20260506194606 | 6 | 288 | 0.0 | 0.0 | 0.03 | 1.30 | 1.19 | 96 | 1009.5 |
| 20260506193100 | 6 | 302 | 0.0 | 0.0 | 0.03 | 1.27 | 1.17 | 96 | 1009.4 |
| 20260506191607 | 6 | 257 | 0.0 | 0.0 | 0.03 | 1.27 | 1.17 | 96 | 1009.3 |
| 20260506190055 | 6 | 154 | 0.0 | 0.0 | 0.03 | 1.27 | 1.17 | 96 | 1009.3 |
| 20260506184554 | 6 | 264 | 0.0 | 0.0 | 0.03 | 1.30 | 1.17 | 96 | 1009.5 |
| 20260506183056 | 6 | 262 | 0.0 | 0.0 | 0.03 | 1.27 | 1.14 | 96 | 1009.7 |
| 20260506181559 | 6 | 280 | 0.0 | 0.0 | 0.03 | 1.27 | 1.14 | 96 | 1009.9 |
| 20260506180112 | 6 | 257 | 0.0 | 0.0 | 0.05 | 1.27 | 1.14 | 96 | 1010.0 |
| 20260506174551 | 6 | 243 | 0.0 | 0.0 | 0.10 | 1.27 | 1.14 | 96 | 1010.2 |
| 20260506173116 | 6 | 1 | 0.0 | 0.0 | 0.10 | 1.24 | 1.12 | 95 | 1010.3 |
| 20260506171549 | 6 | 332 | 0.0 | 0.0 | 0.15 | 1.24 | 1.12 | 95 | 1010.4 |
| 20260506170047 | 6 | 265 | 0.0 | 0.0 | 0.20 | 1.22 | 1.09 | 95 | 1010.2 |
| 20260506164546 | 6 | 354 | 0.0 | 0.0 | 0.20 | 1.17 | 1.04 | 95 | 1010.5 |
| 20260506163047 | 6 | 315 | 0.0 | 0.0 | 0.23 | 1.14 | 1.02 | 95 | 1010.6 |
| 20260506161553 | 5 | 279 | 0.0 | 1.6 | 0.23 | 1.07 | 0.94 | 95 | 1010.7 |
| 20260506160045 | 5 | 285 | 0.0 | 0.0 | 0.23 | 1.02 | 0.89 | 94 | 1010.9 |
| 20260506154544 | 5 | 340 | 0.0 | 0.0 | 0.20 | 0.94 | 0.81 | 94 | 1010.9 |
| 20260506153042 | 5 | 304 | 0.0 | 0.0 | 0.20 | 0.91 | 0.79 | 94 | 1011.1 |
| 20260506151545 | 5 | 288 | 0.0 | 0.0 | 0.15 | 0.84 | 0.71 | 94 | 1011.2 |
| 20260506150040 | 5 | 280 | 0.0 | 0.0 | 0.13 | 0.79 | 0.66 | 94 | 1010.9 |
| 20260506144551 | 6 | 300 | 0.0 | 0.0 | 0.13 | 0.71 | 0.61 | 94 | 1010.6 |
| 20260506143037 | 6 | 312 | 0.0 | 0.0 | 0.13 | 0.71 | 0.58 | 94 | 1010.7 |
| 20260506141537 | 6 | 293 | 0.0 | 0.0 | 0.10 | 0.69 | 0.56 | 94 | 1010.9 |
| 20260506140035 | 6 | 297 | 0.0 | 0.0 | 0.10 | 0.66 | 0.53 | 94 | 1011.0 |
| 20260506134532 | 6 | 302 | 0.0 | 0.0 | 0.08 | 0.61 | 0.48 | 94 | 1010.7 |
| 20260506133037 | 6 | 18 | 0.0 | 0.0 | 0.10 | 0.58 | 0.46 | 93 | 1010.5 |
| 20260506131531 | 6 | 238 | 0.0 | 0.0 | 0.13 | 0.58 | 0.46 | 94 | 1011.1 |
| 20260506130031 | 6 | 267 | 0.0 | 0.0 | 0.15 | 0.56 | 0.43 | 93 | 1011.2 |
| 20260506124528 | 6 | 253 | 0.0 | 0.0 | 0.15 | 0.53 | 0.41 | 93 | 1011.3 |
| 20260506123028 | 6 | 265 | 0.0 | 0.0 | 0.13 | 0.48 | 0.36 | 92 | 1011.2 |
| 20260506121528 | 6 | 321 | 0.0 | 0.0 | 0.15 | 0.46 | 0.33 | 92 | 1011.3 |
| 20260506120029 | 6 | 271 | 0.0 | 0.0 | 0.10 | 0.41 | 0.28 | 92 | 1012.0 |
| 20260506114521 | 7 | 356 | 0.0 | 0.0 | 0.08 | 0.38 | 0.25 | 92 | 1011.7 |
| 20260506113021 | 7 | 264 | 0.0 | 0.0 | 0.08 | 0.36 | 0.23 | 93 | 1011.6 |
| 20260506111517 | 7 | 246 | 0.0 | 0.0 | 0.03 | 0.30 | 0.18 | 93 | 1011.0 |
| 20260506110019 | 7 | 246 | 0.0 | 0.0 | 0.03 | 0.30 | 0.18 | 92 | 1010.8 |
| 20260506104515 | 7 | 246 | 0.0 | 0.0 | 0.03 | 0.30 | 0.18 | 91 | 1010.8 |
| 20260506103015 | 7 | 246 | 0.0 | 0.0 | 0.03 | 0.28 | 0.15 | 91 | 1010.8 |
| 20260506101514 | 7 | 242 | 0.0 | 0.0 | 0.05 | 0.28 | 0.15 | 91 | 1010.7 |
| 20260506100013 | 8 | 242 | 0.0 | 0.0 | 0.08 | 0.28 | 0.15 | 91 | 1010.8 |
| 20260506094510 | 8 | 242 | 0.0 | 0.0 | 0.08 | 0.28 | 0.15 | 91 | 1010.7 |
| 20260506093009 | 8 | 240 | 0.0 | 0.0 | 0.05 | 0.25 | 0.13 | 90 | 1011.0 |
| 20260506091508 | 8 | 302 | 0.0 | 0.0 | 0.03 | 0.23 | 0.10 | 88 | 1011.1 |
| 20260506090009 | 8 | 266 | 0.0 | 0.0 | 0.00 | 0.20 | 0.08 | 88 | 1011.5 |
| 20260506084506 | 9 | 320 | 0.0 | 0.0 | 0.00 | 0.20 | 0.08 | 90 | 1011.1 |
| 20260506083002 | 9 | 316 | 0.0 | 0.0 | 0.00 | 0.20 | 0.08 | 88 | 1011.0 |
| 20260506081500 | 9 | 263 | 0.0 | 0.0 | 0.00 | 0.20 | 0.08 | 87 | 1011.0 |
| 20260506080109 | 9 | 286 | 0.0 | 0.0 | 0.00 | 0.20 | 0.08 | 89 | 1010.6 |
| 20260506073106 | 10 | 83 | 0.0 | 0.0 | 0.00 | 0.20 | 0.08 | 89 | 1010.5 |
| 20260506071552 | 10 | 349 | 0.0 | 0.0 | 0.00 | 0.20 | 0.08 | 90 | 1010.4 |
| 20260506061545 | 10 | 8 | 0.0 | 0.0 | 0.00 | 0.20 | 0.08 | 92 | 1010.2 |
| 20260506044543 | 11 | 77 | 0.0 | 0.0 | 0.10 | 0.20 | 0.08 | 91 | 1010.4 |
| 20260506043034 | 11 | 91 | 0.0 | 0.0 | 0.10 | 0.18 | 0.05 | 90 | 1010.5 |
| 20260506041543 | 11 | 316 | 0.0 | 0.0 | 0.08 | 0.15 | 0.03 | 88 | 1009.7 |
| 20260506040032 | 12 | 355 | 0.0 | 0.0 | 0.05 | 0.13 | 0.00 | 82 | 1009.9 |
| 20260506034530 | 13 | 269 | 0.0 | 0.0 | 0.03 | 0.10 | 0.10 | 73 | 1009.7 |
| 20260506033020 | 14 | 303 | 0.0 | 0.0 | 0.00 | 0.08 | 0.08 | 70 | 1009.3 |
| 20260506031519 | 13 | 280 | 0.0 | 0.0 | 0.00 | 0.08 | 0.08 | 72 | 1009.4 |
| 20260506030015 | 15 | 208 | 0.0 | 0.0 | 0.00 | 0.08 | 0.08 | 69 | 1009.1 |
| 20260506024516 | 15 | 253 | 0.0 | 0.0 | 0.00 | 0.08 | 0.08 | 64 | 1009.0 |
| 20260506023017 | 16 | 252 | 0.0 | 1.6 | 0.00 | 0.08 | 0.08 | 62 | 1008.8 |
| 20260506021508 | 16 | 269 | 0.0 | 0.0 | 0.00 | 0.08 | 0.08 | 61 | 1008.9 |
| 20260506020007 | 16 | 240 | 0.0 | 12.9 | 0.00 | 0.08 | 0.08 | 62 | 1008.6 |
| 20260506014506 | 17 | 255 | 0.0 | 1.6 | 0.00 | 0.08 | 0.08 | 66 | 1008.8 |
| 20260506013003 | 17 | 261 | 0.0 | 0.0 | 0.00 | 0.08 | 0.08 | 77 | 1008.3 |
| 20260506011623 | 17 | 115 | 0.0 | 0.0 | 0.00 | 0.08 | 0.08 | 78 | 1007.5 |
| 20260506010115 | 17 | 77 | 0.0 | 0.0 | 0.00 | 0.08 | 0.08 | 76 | 1007.1 |
| 20260506004555 | 17 | 116 | 0.0 | 0.0 | 0.00 | 0.08 | 0.08 | 74 | 1006.8 |
| 20260506003056 | 17 | 178 | 0.0 | 0.0 | 0.00 | 0.08 | 0.08 | 77 | 1006.5 |
| 20260506001550 | 17 | 129 | 0.0 | 0.0 | 0.00 | 0.08 | 0.08 | 78 | 1006.1 |
| 20260506000057 | 18 | 124 | 0.0 | 0.0 | 0.00 | 0.08 | 0.08 | 74 | 1006.1 |
| 20260505234548 | 17 | 220 | 0.0 | 0.0 | 0.00 | 0.08 | 0.08 | 72 | 1005.8 |
| 20260505233048 | 17 | 157 | 0.0 | 0.0 | 0.00 | 0.08 | 0.08 | 78 | 1005.7 |
| 20260505231547 | 18 | 179 | 0.0 | 0.0 | 0.00 | 0.08 | 0.08 | 75 | 1006.1 |
| 20260505230046 | 18 | 153 | 0.0 | 0.0 | 0.00 | 0.08 | 0.08 | 72 | 1005.4 |
| 20260505224544 | 18 | 138 | 0.0 | 0.0 | 0.00 | 0.08 | 0.08 | 71 | 1005.2 |
| 20260505223044 | 19 | 91 | 0.0 | 0.0 | 0.00 | 0.08 | 0.08 | 68 | 1005.4 |
| 20260505221551 | 18 | 120 | 0.0 | 0.0 | 0.00 | 0.08 | 0.08 | 70 | 1005.8 |
| 20260505220054 | 19 | 98 | 0.0 | 0.0 | 0.00 | 0.08 | 0.08 | 66 | 1005.5 |
| 20260505214550 | 19 | 95 | 0.0 | 1.6 | 0.00 | 0.08 | 0.08 | 64 | 1005.6 |
| 20260505213040 | 18 | 97 | 0.0 | 0.0 | 0.00 | 0.08 | 0.08 | 66 | 1005.0 |